Year,Month,Day,Hour,Minute,Value (Times are PST for temperature in C)
2015,07,30,00,00,17.00
2015,07,30,00,01,16.90
2015,07,30,00,02,16.90
2015,07,30,00,03,16.90
2015,07,30,00,04,16.80
2015,07,30,00,05,16.80
2015,07,30,00,06,16.80
2015,07,30,00,07,16.80
2015,07,30,00,08,16.80
2015,07,30,00,09,16.70
2015,07,30,00,10,16.70
2015,07,30,00,11,16.70
2015,07,30,00,12,16.70
2015,07,30,00,13,16.70
2015,07,30,00,14,16.70
2015,07,30,00,15,16.70
2015,07,30,00,16,16.70
2015,07,30,00,17,16.70
2015,07,30,00,18,16.70
2015,07,30,00,19,16.60
2015,07,30,00,20,16.60
2015,07,30,00,21,16.60
2015,07,30,00,22,16.60
2015,07,30,00,23,16.60
2015,07,30,00,24,16.60
2015,07,30,00,25,16.50
2015,07,30,00,26,16.40
2015,07,30,00,27,16.40
2015,07,30,00,28,16.40
2015,07,30,00,29,16.40
2015,07,30,00,30,16.40
2015,07,30,00,31,16.40
2015,07,30,00,32,16.40
2015,07,30,00,33,16.40
2015,07,30,00,34,16.30
2015,07,30,00,35,16.30
2015,07,30,00,36,16.30
2015,07,30,00,37,16.30
2015,07,30,00,38,16.20
2015,07,30,00,39,16.20
2015,07,30,00,40,16.20
2015,07,30,00,41,16.20
2015,07,30,00,42,16.20
2015,07,30,00,43,16.20
2015,07,30,00,44,16.10
2015,07,30,00,45,16.10
2015,07,30,00,46,16.10
2015,07,30,00,47,16.10
2015,07,30,00,48,16.10
2015,07,30,00,49,16.10
2015,07,30,00,50,16.10
2015,07,30,00,51,16.00
2015,07,30,00,52,15.90
2015,07,30,00,53,15.90
2015,07,30,00,54,15.90
2015,07,30,00,55,15.80
2015,07,30,00,56,15.80
2015,07,30,00,57,15.80
2015,07,30,00,58,15.80
2015,07,30,00,59,15.80
2015,07,30,01,00,15.80
2015,07,30,01,01,15.80
2015,07,30,01,02,15.70
2015,07,30,01,03,15.70
2015,07,30,01,04,15.70
2015,07,30,01,05,15.70
2015,07,30,01,06,15.70
2015,07,30,01,07,15.60
2015,07,30,01,08,15.60
2015,07,30,01,09,15.60
2015,07,30,01,10,15.60
2015,07,30,01,11,15.60
2015,07,30,01,12,15.60
2015,07,30,01,13,15.60
2015,07,30,01,14,15.60
2015,07,30,01,15,15.60
2015,07,30,01,16,15.50
2015,07,30,01,17,15.50
2015,07,30,01,18,15.50
2015,07,30,01,19,15.50
2015,07,30,01,20,15.50
2015,07,30,01,21,15.40
2015,07,30,01,22,15.40
2015,07,30,01,23,15.40
2015,07,30,01,24,15.40
2015,07,30,01,25,15.40
2015,07,30,01,26,15.40
2015,07,30,01,27,15.40
2015,07,30,01,28,15.40
2015,07,30,01,29,15.40
2015,07,30,01,30,15.30
2015,07,30,01,31,15.30
2015,07,30,01,32,15.30
2015,07,30,01,33,15.30
2015,07,30,01,34,15.30
2015,07,30,01,35,15.30
2015,07,30,01,36,15.30
2015,07,30,01,37,15.30
2015,07,30,01,38,15.30
2015,07,30,01,39,15.30
2015,07,30,01,40,15.30
2015,07,30,01,41,15.30
2015,07,30,01,42,15.30
2015,07,30,01,43,15.30
2015,07,30,01,44,15.20
2015,07,30,01,45,15.20
2015,07,30,01,46,15.20
2015,07,30,01,47,15.20
2015,07,30,01,48,15.20
2015,07,30,01,49,15.20
2015,07,30,01,50,15.20
2015,07,30,01,51,15.20
2015,07,30,01,52,15.20
2015,07,30,01,53,15.20
2015,07,30,01,54,15.20
2015,07,30,01,55,15.20
2015,07,30,01,56,15.20
2015,07,30,01,57,15.20
2015,07,30,01,58,15.20
2015,07,30,01,59,15.20
2015,07,30,02,00,15.20
2015,07,30,02,01,15.10
2015,07,30,02,02,15.10
2015,07,30,02,03,15.10
2015,07,30,02,04,15.10
2015,07,30,02,05,15.10
2015,07,30,02,06,15.10
2015,07,30,02,07,15.10
2015,07,30,02,08,15.10
2015,07,30,02,09,15.10
2015,07,30,02,10,15.20
2015,07,30,02,11,15.20
2015,07,30,02,12,15.20
2015,07,30,02,13,15.20
2015,07,30,02,14,15.20
2015,07,30,02,15,15.10
2015,07,30,02,16,15.10
2015,07,30,02,17,15.10
2015,07,30,02,18,15.10
2015,07,30,02,19,15.10
2015,07,30,02,20,15.10
2015,07,30,02,21,15.10
2015,07,30,02,22,15.00
2015,07,30,02,23,15.00
2015,07,30,02,24,15.00
2015,07,30,02,25,15.00
2015,07,30,02,26,15.00
2015,07,30,02,27,15.00
2015,07,30,02,28,15.00
2015,07,30,02,29,15.00
2015,07,30,02,30,14.90
2015,07,30,02,31,14.90
2015,07,30,02,32,14.90
2015,07,30,02,33,14.90
2015,07,30,02,34,14.90
2015,07,30,02,35,14.80
2015,07,30,02,36,14.80
2015,07,30,02,37,14.80
2015,07,30,02,38,14.80
2015,07,30,02,39,14.80
2015,07,30,02,40,14.80
2015,07,30,02,41,14.80
2015,07,30,02,42,14.70
2015,07,30,02,43,14.70
2015,07,30,02,44,14.70
2015,07,30,02,45,14.70
2015,07,30,02,46,14.60
2015,07,30,02,47,14.60
2015,07,30,02,48,14.60
2015,07,30,02,49,14.60
2015,07,30,02,50,14.60
2015,07,30,02,51,14.60
2015,07,30,02,52,14.60
2015,07,30,02,53,14.60
2015,07,30,02,54,14.60
2015,07,30,02,55,14.60
2015,07,30,02,56,14.60
2015,07,30,02,57,14.60
2015,07,30,02,58,14.50
2015,07,30,02,59,14.50
2015,07,30,03,00,14.50
2015,07,30,03,01,14.50
2015,07,30,03,02,14.40
2015,07,30,03,03,14.40
2015,07,30,03,04,14.30
2015,07,30,03,05,14.30
2015,07,30,03,06,14.30
2015,07,30,03,07,14.20
2015,07,30,03,08,14.20
2015,07,30,03,09,14.20
2015,07,30,03,10,14.20
2015,07,30,03,11,14.20
2015,07,30,03,12,14.20
2015,07,30,03,13,14.20
2015,07,30,03,14,14.20
2015,07,30,03,15,14.20
2015,07,30,03,16,14.20
2015,07,30,03,17,14.20
2015,07,30,03,18,14.20
2015,07,30,03,19,14.20
2015,07,30,03,20,14.20
2015,07,30,03,21,14.20
2015,07,30,03,22,14.20
2015,07,30,03,23,14.20
2015,07,30,03,24,14.20
2015,07,30,03,25,14.20
2015,07,30,03,26,14.20
2015,07,30,03,27,14.20
2015,07,30,03,28,14.20
2015,07,30,03,29,14.20
2015,07,30,03,30,14.20
2015,07,30,03,31,14.20
2015,07,30,03,32,14.20
2015,07,30,03,33,14.20
2015,07,30,03,34,14.20
2015,07,30,03,35,14.20
2015,07,30,03,36,14.20
2015,07,30,03,37,14.20
2015,07,30,03,38,14.20
2015,07,30,03,39,14.20
2015,07,30,03,40,14.20
2015,07,30,03,41,14.20
2015,07,30,03,42,14.20
2015,07,30,03,43,14.20
2015,07,30,03,44,14.20
2015,07,30,03,45,14.20
2015,07,30,03,46,14.20
2015,07,30,03,47,14.20
2015,07,30,03,48,14.20
2015,07,30,03,49,14.20
2015,07,30,03,50,14.20
2015,07,30,03,51,14.20
2015,07,30,03,52,14.20
2015,07,30,03,53,14.20
2015,07,30,03,54,14.20
2015,07,30,03,55,14.10
2015,07,30,03,56,14.10
2015,07,30,03,57,14.10
2015,07,30,03,58,14.10
2015,07,30,03,59,14.10
2015,07,30,04,00,14.10
2015,07,30,04,01,14.00
2015,07,30,04,02,14.00
2015,07,30,04,03,14.00
2015,07,30,04,04,14.00
2015,07,30,04,05,14.00
2015,07,30,04,06,14.00
2015,07,30,04,07,13.90
2015,07,30,04,08,13.90
2015,07,30,04,09,13.90
2015,07,30,04,10,13.90
2015,07,30,04,11,13.90
2015,07,30,04,12,13.90
2015,07,30,04,13,13.80
2015,07,30,04,14,13.80
2015,07,30,04,15,13.80
2015,07,30,04,16,13.80
2015,07,30,04,17,13.80
2015,07,30,04,18,13.80
2015,07,30,04,19,13.80
2015,07,30,04,20,13.80
2015,07,30,04,21,13.70
2015,07,30,04,22,13.70
2015,07,30,04,23,13.70
2015,07,30,04,24,13.70
2015,07,30,04,25,13.70
2015,07,30,04,26,13.70
2015,07,30,04,27,13.70
2015,07,30,04,28,13.70
2015,07,30,04,29,13.70
2015,07,30,04,30,13.70
2015,07,30,04,31,13.70
2015,07,30,04,32,13.70
2015,07,30,04,33,13.70
2015,07,30,04,34,13.70
2015,07,30,04,35,13.70
2015,07,30,04,36,13.70
2015,07,30,04,37,13.70
2015,07,30,04,38,13.70
2015,07,30,04,39,13.70
2015,07,30,04,40,13.70
2015,07,30,04,41,13.70
2015,07,30,04,42,13.60
2015,07,30,04,43,13.60
2015,07,30,04,44,13.60
2015,07,30,04,45,13.60
2015,07,30,04,46,13.50
2015,07,30,04,47,13.50
2015,07,30,04,48,13.50
2015,07,30,04,49,13.50
2015,07,30,04,50,13.50
2015,07,30,04,51,13.50
2015,07,30,04,52,13.50
2015,07,30,04,53,13.40
2015,07,30,04,54,13.40
2015,07,30,04,55,13.40
2015,07,30,04,56,13.40
2015,07,30,04,57,13.40
2015,07,30,04,58,13.40
2015,07,30,04,59,13.40
2015,07,30,05,00,13.40
2015,07,30,05,01,13.30
2015,07,30,05,02,13.30
2015,07,30,05,03,13.30
2015,07,30,05,04,13.30
2015,07,30,05,05,13.30
2015,07,30,05,06,13.30
2015,07,30,05,07,13.30
2015,07,30,05,08,13.30
2015,07,30,05,09,13.30
2015,07,30,05,10,13.30
2015,07,30,05,11,13.30
2015,07,30,05,12,13.30
2015,07,30,05,13,13.30
2015,07,30,05,14,13.30
2015,07,30,05,15,13.30
2015,07,30,05,16,13.30
2015,07,30,05,17,13.30
2015,07,30,05,18,13.30
2015,07,30,05,19,13.30
2015,07,30,05,20,13.30
2015,07,30,05,21,13.30
2015,07,30,05,22,13.30
2015,07,30,05,23,13.30
2015,07,30,05,24,13.30
2015,07,30,05,25,13.30
2015,07,30,05,26,13.30
2015,07,30,05,27,13.30
2015,07,30,05,28,13.30
2015,07,30,05,29,13.30
2015,07,30,05,30,13.30
2015,07,30,05,31,13.30
2015,07,30,05,32,13.20
2015,07,30,05,33,13.20
2015,07,30,05,34,13.20
2015,07,30,05,35,13.20
2015,07,30,05,36,13.10
2015,07,30,05,37,13.10
2015,07,30,05,38,13.10
2015,07,30,05,39,13.00
2015,07,30,05,40,13.00
2015,07,30,05,41,13.00
2015,07,30,05,42,13.00
2015,07,30,05,43,12.90
2015,07,30,05,44,12.90
2015,07,30,05,45,12.90
2015,07,30,05,46,12.90
2015,07,30,05,47,12.80
2015,07,30,05,48,12.80
2015,07,30,05,49,12.80
2015,07,30,05,50,12.80
2015,07,30,05,51,12.80
2015,07,30,05,52,12.80
2015,07,30,05,53,12.80
2015,07,30,05,54,12.80
2015,07,30,05,55,12.80
2015,07,30,05,56,12.80
2015,07,30,05,57,12.80
2015,07,30,05,58,12.80
2015,07,30,05,59,12.80
2015,07,30,06,00,12.80
2015,07,30,06,01,12.80
2015,07,30,06,02,12.80
2015,07,30,06,03,12.80
2015,07,30,06,04,12.80
2015,07,30,06,05,12.80
2015,07,30,06,06,12.90
2015,07,30,06,07,12.90
2015,07,30,06,08,12.90
2015,07,30,06,09,12.90
2015,07,30,06,10,12.90
2015,07,30,06,11,13.00
2015,07,30,06,12,13.00
2015,07,30,06,13,13.00
2015,07,30,06,14,13.00
2015,07,30,06,15,13.00
2015,07,30,06,16,13.10
2015,07,30,06,17,13.10
2015,07,30,06,18,13.10
2015,07,30,06,19,13.20
2015,07,30,06,20,13.20
2015,07,30,06,21,13.20
2015,07,30,06,22,13.30
2015,07,30,06,23,13.30
2015,07,30,06,24,13.30
2015,07,30,06,25,13.30
2015,07,30,06,26,13.40
2015,07,30,06,27,13.40
2015,07,30,06,28,13.50
2015,07,30,06,29,13.50
2015,07,30,06,30,13.60
2015,07,30,06,31,13.60
2015,07,30,06,32,13.70
2015,07,30,06,33,13.70
2015,07,30,06,34,13.80
2015,07,30,06,35,13.90
2015,07,30,06,36,13.90
2015,07,30,06,37,13.90
2015,07,30,06,38,14.00
2015,07,30,06,39,14.00
2015,07,30,06,40,14.10
2015,07,30,06,41,14.20
2015,07,30,06,42,14.20
2015,07,30,06,43,14.30
2015,07,30,06,44,14.30
2015,07,30,06,45,14.40
2015,07,30,06,46,14.50
2015,07,30,06,47,14.50
2015,07,30,06,48,14.60
2015,07,30,06,49,14.60
2015,07,30,06,50,14.70
2015,07,30,06,51,14.80
2015,07,30,06,52,14.80
2015,07,30,06,53,14.80
2015,07,30,06,54,14.90
2015,07,30,06,55,15.00
2015,07,30,06,56,15.00
2015,07,30,06,57,15.10
2015,07,30,06,58,15.30
2015,07,30,06,59,15.40
2015,07,30,07,00,15.50
2015,07,30,07,01,15.60
2015,07,30,07,02,15.70
2015,07,30,07,03,15.80
2015,07,30,07,04,15.80
2015,07,30,07,05,15.90
2015,07,30,07,06,16.00
2015,07,30,07,07,16.10
2015,07,30,07,08,16.10
2015,07,30,07,09,16.20
2015,07,30,07,10,16.30
2015,07,30,07,11,16.40
2015,07,30,07,12,16.60
2015,07,30,07,13,16.70
2015,07,30,07,14,16.80
2015,07,30,07,15,17.00
2015,07,30,07,16,17.10
2015,07,30,07,17,17.20
2015,07,30,07,18,17.30
2015,07,30,07,19,17.40
2015,07,30,07,20,17.50
2015,07,30,07,21,17.60
2015,07,30,07,22,17.70
2015,07,30,07,23,17.80
2015,07,30,07,24,17.90
2015,07,30,07,25,17.90
2015,07,30,07,26,17.90
2015,07,30,07,27,17.90
2015,07,30,07,28,18.00
2015,07,30,07,29,18.10
2015,07,30,07,30,18.20
2015,07,30,07,31,18.20
2015,07,30,07,32,18.20
2015,07,30,07,33,18.30
2015,07,30,07,34,18.30
2015,07,30,07,35,18.30
2015,07,30,07,36,18.40
2015,07,30,07,37,18.50
2015,07,30,07,38,18.60
2015,07,30,07,39,18.70
2015,07,30,07,40,18.80
2015,07,30,07,41,18.90
2015,07,30,07,42,19.00
2015,07,30,07,43,19.10
2015,07,30,07,44,19.30
2015,07,30,07,45,19.40
2015,07,30,07,46,19.50
2015,07,30,07,47,19.60
2015,07,30,07,48,19.70
2015,07,30,07,49,19.80
2015,07,30,07,50,19.90
2015,07,30,07,51,19.90
2015,07,30,07,52,19.90
2015,07,30,07,53,19.90
2015,07,30,07,54,19.90
2015,07,30,07,55,19.90
2015,07,30,07,56,20.00
2015,07,30,07,57,20.10
2015,07,30,07,58,20.10
2015,07,30,07,59,20.20
2015,07,30,08,00,20.20
2015,07,30,08,01,20.30
2015,07,30,08,02,20.30
2015,07,30,08,03,20.40
2015,07,30,08,04,20.50
2015,07,30,08,05,20.50
2015,07,30,08,06,20.40
2015,07,30,08,07,20.30
2015,07,30,08,08,20.20
2015,07,30,08,09,20.00
2015,07,30,08,10,19.90
2015,07,30,08,11,19.80
2015,07,30,08,12,19.70
2015,07,30,08,13,19.70
2015,07,30,08,14,19.60
2015,07,30,08,15,19.60
2015,07,30,08,16,19.60
2015,07,30,08,17,19.60
2015,07,30,08,18,19.60
2015,07,30,08,19,19.70
2015,07,30,08,20,19.80
2015,07,30,08,21,19.90
2015,07,30,08,22,20.10
2015,07,30,08,23,20.20
2015,07,30,08,24,20.40
2015,07,30,08,25,20.60
2015,07,30,08,26,20.70
2015,07,30,08,27,20.90
2015,07,30,08,28,21.00
2015,07,30,08,29,21.10
2015,07,30,08,30,21.20
2015,07,30,08,31,21.30
2015,07,30,08,32,21.30
2015,07,30,08,33,21.30
2015,07,30,08,34,21.40
2015,07,30,08,35,21.40
2015,07,30,08,36,21.50
2015,07,30,08,37,21.60
2015,07,30,08,38,21.60
2015,07,30,08,39,21.70
2015,07,30,08,40,21.70
2015,07,30,08,41,21.70
2015,07,30,08,42,21.80
2015,07,30,08,43,21.80
2015,07,30,08,44,21.90
2015,07,30,08,45,22.00
2015,07,30,08,46,22.00
2015,07,30,08,47,22.10
2015,07,30,08,48,22.20
2015,07,30,08,49,22.30
2015,07,30,08,50,22.40
2015,07,30,08,51,22.40
2015,07,30,08,52,22.50
2015,07,30,08,53,22.60
2015,07,30,08,54,22.70
2015,07,30,08,55,22.70
2015,07,30,08,56,22.70
2015,07,30,08,57,22.70
2015,07,30,08,58,22.70
2015,07,30,08,59,22.70
2015,07,30,09,00,22.70
2015,07,30,09,01,22.70
2015,07,30,09,02,22.90
2015,07,30,09,03,23.00
2015,07,30,09,04,23.10
2015,07,30,09,05,23.20
2015,07,30,09,06,23.30
2015,07,30,09,07,23.40
2015,07,30,09,08,23.40
2015,07,30,09,09,23.40
2015,07,30,09,10,23.40
2015,07,30,09,11,23.40
2015,07,30,09,12,23.30
2015,07,30,09,13,23.30
2015,07,30,09,14,23.30
2015,07,30,09,15,23.30
2015,07,30,09,16,23.30
2015,07,30,09,17,23.40
2015,07,30,09,18,23.40
2015,07,30,09,19,23.50
2015,07,30,09,20,23.60
2015,07,30,09,21,23.70
2015,07,30,09,22,23.70
2015,07,30,09,23,23.80
2015,07,30,09,24,23.80
2015,07,30,09,25,23.80
2015,07,30,09,26,23.90
2015,07,30,09,27,23.80
2015,07,30,09,28,23.80
2015,07,30,09,29,23.80
2015,07,30,09,30,23.80
2015,07,30,09,31,23.80
2015,07,30,09,32,23.80
2015,07,30,09,33,23.80
2015,07,30,09,34,23.80
2015,07,30,09,35,23.90
2015,07,30,09,36,24.00
2015,07,30,09,37,24.10
2015,07,30,09,38,24.10
2015,07,30,09,39,24.10
2015,07,30,09,40,24.10
2015,07,30,09,41,24.10
2015,07,30,09,42,24.10
2015,07,30,09,43,24.20
2015,07,30,09,44,24.20
2015,07,30,09,45,24.20
2015,07,30,09,46,24.30
2015,07,30,09,47,24.20
2015,07,30,09,48,24.30
2015,07,30,09,49,24.30
2015,07,30,09,50,24.40
2015,07,30,09,51,24.50
2015,07,30,09,52,24.50
2015,07,30,09,53,24.60
2015,07,30,09,54,24.60
2015,07,30,09,55,24.60
2015,07,30,09,56,24.60
2015,07,30,09,57,24.60
2015,07,30,09,58,24.70
2015,07,30,09,59,24.60
2015,07,30,10,00,24.60
2015,07,30,10,01,24.60
2015,07,30,10,02,24.50
2015,07,30,10,03,24.50
2015,07,30,10,04,24.50
2015,07,30,10,05,24.50
2015,07,30,10,06,24.50
2015,07,30,10,07,24.40
2015,07,30,10,08,24.40
2015,07,30,10,09,24.40
2015,07,30,10,10,24.50
2015,07,30,10,11,24.50
2015,07,30,10,12,24.50
2015,07,30,10,13,24.50
2015,07,30,10,14,24.50
2015,07,30,10,15,24.50
2015,07,30,10,16,24.50
2015,07,30,10,17,24.60
2015,07,30,10,18,24.60
2015,07,30,10,19,24.70
2015,07,30,10,20,24.70
2015,07,30,10,21,24.70
2015,07,30,10,22,24.80
2015,07,30,10,23,24.80
2015,07,30,10,24,24.80
2015,07,30,10,25,24.80
2015,07,30,10,26,24.90
2015,07,30,10,27,25.10
2015,07,30,10,28,25.20
2015,07,30,10,29,25.30
2015,07,30,10,30,25.30
2015,07,30,10,31,25.30
2015,07,30,10,32,25.30
2015,07,30,10,33,25.30
2015,07,30,10,34,25.30
2015,07,30,10,35,25.30
2015,07,30,10,36,25.30
2015,07,30,10,37,25.30
2015,07,30,10,38,25.30
2015,07,30,10,39,25.30
2015,07,30,10,40,25.30
2015,07,30,10,41,25.30
2015,07,30,10,42,25.30
2015,07,30,10,43,25.30
2015,07,30,10,44,25.30
2015,07,30,10,45,25.30
2015,07,30,10,46,25.40
2015,07,30,10,47,25.40
2015,07,30,10,48,25.40
2015,07,30,10,49,25.40
2015,07,30,10,50,25.40
2015,07,30,10,51,25.40
2015,07,30,10,52,25.50
2015,07,30,10,53,25.50
2015,07,30,10,54,25.50
2015,07,30,10,55,25.50
2015,07,30,10,56,25.60
2015,07,30,10,57,25.60
2015,07,30,10,58,25.70
2015,07,30,10,59,25.80
2015,07,30,11,00,25.80
2015,07,30,11,01,25.80
2015,07,30,11,02,25.90
2015,07,30,11,03,25.90
2015,07,30,11,04,25.90
2015,07,30,11,05,25.90
2015,07,30,11,06,25.90
2015,07,30,11,07,26.00
2015,07,30,11,08,26.10
2015,07,30,11,09,26.20
2015,07,30,11,10,26.20
2015,07,30,11,11,26.30
2015,07,30,11,12,26.30
2015,07,30,11,13,26.30
2015,07,30,11,14,26.40
2015,07,30,11,15,26.40
2015,07,30,11,16,26.40
2015,07,30,11,17,26.50
2015,07,30,11,18,26.60
2015,07,30,11,19,26.60
2015,07,30,11,20,26.60
2015,07,30,11,21,26.60
2015,07,30,11,22,26.60
2015,07,30,11,23,26.70
2015,07,30,11,24,26.70
2015,07,30,11,25,26.70
2015,07,30,11,26,26.70
2015,07,30,11,27,26.70
2015,07,30,11,28,26.70
2015,07,30,11,29,26.70
2015,07,30,11,30,26.80
2015,07,30,11,31,26.80
2015,07,30,11,32,26.80
2015,07,30,11,33,26.70
2015,07,30,11,34,26.70
2015,07,30,11,35,26.70
2015,07,30,11,36,26.90
2015,07,30,11,37,26.90
2015,07,30,11,38,26.90
2015,07,30,11,39,27.00
2015,07,30,11,40,27.00
2015,07,30,11,41,27.10
2015,07,30,11,42,27.10
2015,07,30,11,43,27.00
2015,07,30,11,44,27.10
2015,07,30,11,45,27.10
2015,07,30,11,46,27.20
2015,07,30,11,47,27.20
2015,07,30,11,48,27.10
2015,07,30,11,49,27.00
2015,07,30,11,50,26.90
2015,07,30,11,51,26.90
2015,07,30,11,52,26.90
2015,07,30,11,53,27.00
2015,07,30,11,54,27.10
2015,07,30,11,55,27.10
2015,07,30,11,56,27.10
2015,07,30,11,57,27.20
2015,07,30,11,58,27.30
2015,07,30,11,59,27.30
2015,07,30,12,00,27.50
2015,07,30,12,01,27.60
2015,07,30,12,02,27.70
2015,07,30,12,03,27.80
2015,07,30,12,04,27.80
2015,07,30,12,05,27.80
2015,07,30,12,06,27.80
2015,07,30,12,07,27.80
2015,07,30,12,08,27.90
2015,07,30,12,09,27.90
2015,07,30,12,10,28.00
2015,07,30,12,11,28.00
2015,07,30,12,12,28.10
2015,07,30,12,13,28.10
2015,07,30,12,14,28.10
2015,07,30,12,15,28.10
2015,07,30,12,16,28.00
2015,07,30,12,17,28.00
2015,07,30,12,18,28.00
2015,07,30,12,19,28.00
2015,07,30,12,20,28.00
2015,07,30,12,21,28.00
2015,07,30,12,22,28.00
2015,07,30,12,23,28.00
2015,07,30,12,24,28.10
2015,07,30,12,25,28.20
2015,07,30,12,26,28.30
2015,07,30,12,27,28.30
2015,07,30,12,28,28.40
2015,07,30,12,29,28.40
2015,07,30,12,30,28.30
2015,07,30,12,31,28.30
2015,07,30,12,32,28.20
2015,07,30,12,33,28.20
2015,07,30,12,34,28.20
2015,07,30,12,35,28.30
2015,07,30,12,36,28.30
2015,07,30,12,37,28.30
2015,07,30,12,38,28.20
2015,07,30,12,39,28.20
2015,07,30,12,40,28.10
2015,07,30,12,41,28.10
2015,07,30,12,42,28.00
2015,07,30,12,43,28.00
2015,07,30,12,44,28.00
2015,07,30,12,45,28.10
2015,07,30,12,46,28.20
2015,07,30,12,47,28.30
2015,07,30,12,48,28.30
2015,07,30,12,49,28.30
2015,07,30,12,50,28.20
2015,07,30,12,51,28.20
2015,07,30,12,52,28.10
2015,07,30,12,53,28.10
2015,07,30,12,54,28.10
2015,07,30,12,55,28.00
2015,07,30,12,56,28.00
2015,07,30,12,57,28.10
2015,07,30,12,58,28.10
2015,07,30,12,59,28.10
2015,07,30,13,00,28.10
2015,07,30,13,01,28.20
2015,07,30,13,02,28.20
2015,07,30,13,03,28.20
2015,07,30,13,04,28.20
2015,07,30,13,05,28.20
2015,07,30,13,06,28.20
2015,07,30,13,07,28.20
2015,07,30,13,08,28.30
2015,07,30,13,09,28.30
2015,07,30,13,10,28.30
2015,07,30,13,11,28.30
2015,07,30,13,12,28.30
2015,07,30,13,13,28.20
2015,07,30,13,14,28.20
2015,07,30,13,15,28.20
2015,07,30,13,16,28.10
2015,07,30,13,17,28.00
2015,07,30,13,18,28.00
2015,07,30,13,19,28.00
2015,07,30,13,20,28.00
2015,07,30,13,21,28.10
2015,07,30,13,22,28.20
2015,07,30,13,23,28.20
2015,07,30,13,24,28.20
2015,07,30,13,25,28.20
2015,07,30,13,26,28.30
2015,07,30,13,27,28.30
2015,07,30,13,28,28.30
2015,07,30,13,29,28.40
2015,07,30,13,30,28.40
2015,07,30,13,31,28.40
2015,07,30,13,32,28.50
2015,07,30,13,33,28.60
2015,07,30,13,34,28.70
2015,07,30,13,35,28.70
2015,07,30,13,36,28.70
2015,07,30,13,37,28.80
2015,07,30,13,38,28.70
2015,07,30,13,39,28.70
2015,07,30,13,40,28.70
2015,07,30,13,41,28.70
2015,07,30,13,42,28.80
2015,07,30,13,43,28.80
2015,07,30,13,44,28.90
2015,07,30,13,45,28.90
2015,07,30,13,46,28.80
2015,07,30,13,47,28.80
2015,07,30,13,48,28.80
2015,07,30,13,49,28.80
2015,07,30,13,50,28.90
2015,07,30,13,51,28.90
2015,07,30,13,52,28.90
2015,07,30,13,53,28.90
2015,07,30,13,54,28.90
2015,07,30,13,55,29.00
2015,07,30,13,56,29.10
2015,07,30,13,57,29.20
2015,07,30,13,58,29.20
2015,07,30,13,59,29.20
2015,07,30,14,00,29.30
2015,07,30,14,01,29.30
2015,07,30,14,02,29.40
2015,07,30,14,03,29.40
2015,07,30,14,04,29.40
2015,07,30,14,05,29.30
2015,07,30,14,06,29.30
2015,07,30,14,07,29.40
2015,07,30,14,08,29.40
2015,07,30,14,09,29.50
2015,07,30,14,10,29.50
2015,07,30,14,11,29.50
2015,07,30,14,12,29.50
2015,07,30,14,13,29.50
2015,07,30,14,14,29.60
2015,07,30,14,15,29.60
2015,07,30,14,16,29.60
2015,07,30,14,17,29.60
2015,07,30,14,18,29.60
2015,07,30,14,19,29.60
2015,07,30,14,20,29.60
2015,07,30,14,21,29.60
2015,07,30,14,22,29.60
2015,07,30,14,23,29.40
2015,07,30,14,24,29.40
2015,07,30,14,25,29.30
2015,07,30,14,26,29.40
2015,07,30,14,27,29.30
2015,07,30,14,28,29.10
2015,07,30,14,29,28.90
2015,07,30,14,30,28.70
2015,07,30,14,31,28.50
2015,07,30,14,32,28.30
2015,07,30,14,33,28.20
2015,07,30,14,34,28.10
2015,07,30,14,35,28.00
2015,07,30,14,36,27.90
2015,07,30,14,37,27.80
2015,07,30,14,38,27.60
2015,07,30,14,39,27.20
2015,07,30,14,40,27.00
2015,07,30,14,41,26.90
2015,07,30,14,42,26.90
2015,07,30,14,43,26.60
2015,07,30,14,44,26.10
2015,07,30,14,45,25.80
2015,07,30,14,46,25.60
2015,07,30,14,47,25.50
2015,07,30,14,48,25.30
2015,07,30,14,49,25.20
2015,07,30,14,50,25.10
2015,07,30,14,51,25.20
2015,07,30,14,52,25.20
2015,07,30,14,53,25.30
2015,07,30,14,54,25.30
2015,07,30,14,55,25.30
2015,07,30,14,56,25.30
2015,07,30,14,57,25.40
2015,07,30,14,58,25.40
2015,07,30,14,59,25.30
2015,07,30,15,00,25.20
2015,07,30,15,01,25.00
2015,07,30,15,02,24.90
2015,07,30,15,03,24.90
2015,07,30,15,04,24.80
2015,07,30,15,05,24.80
2015,07,30,15,06,24.80
2015,07,30,15,07,24.80
2015,07,30,15,08,24.80
2015,07,30,15,09,24.90
2015,07,30,15,10,25.00
2015,07,30,15,11,25.20
2015,07,30,15,12,25.30
2015,07,30,15,13,25.20
2015,07,30,15,14,25.20
2015,07,30,15,15,25.10
2015,07,30,15,16,25.00
2015,07,30,15,17,24.90
2015,07,30,15,18,24.90
2015,07,30,15,19,24.90
2015,07,30,15,20,24.90
2015,07,30,15,21,24.90
2015,07,30,15,22,25.00
2015,07,30,15,23,25.00
2015,07,30,15,24,25.20
2015,07,30,15,25,25.30
2015,07,30,15,26,25.50
2015,07,30,15,27,25.70
2015,07,30,15,28,25.90
2015,07,30,15,29,25.90
2015,07,30,15,30,26.00
2015,07,30,15,31,25.90
2015,07,30,15,32,25.90
2015,07,30,15,33,25.90
2015,07,30,15,34,25.80
2015,07,30,15,35,25.80
2015,07,30,15,36,25.70
2015,07,30,15,37,25.80
2015,07,30,15,38,25.90
2015,07,30,15,39,26.00
2015,07,30,15,40,26.10
2015,07,30,15,41,26.20
2015,07,30,15,42,26.40
2015,07,30,15,43,26.50
2015,07,30,15,44,26.60
2015,07,30,15,45,26.80
2015,07,30,15,46,26.90
2015,07,30,15,47,27.00
2015,07,30,15,48,27.10
2015,07,30,15,49,27.20
2015,07,30,15,50,27.30
2015,07,30,15,51,27.30
2015,07,30,15,52,27.30
2015,07,30,15,53,27.40
2015,07,30,15,54,27.40
2015,07,30,15,55,27.40
2015,07,30,15,56,27.40
2015,07,30,15,57,27.30
2015,07,30,15,58,27.30
2015,07,30,15,59,27.30
2015,07,30,16,00,27.10
2015,07,30,16,01,27.00
2015,07,30,16,02,26.90
2015,07,30,16,03,26.80
2015,07,30,16,04,26.80
2015,07,30,16,05,26.80
2015,07,30,16,06,26.70
2015,07,30,16,07,26.70
2015,07,30,16,08,26.60
2015,07,30,16,09,26.60
2015,07,30,16,10,26.60
2015,07,30,16,11,26.60
2015,07,30,16,12,26.60
2015,07,30,16,13,26.60
2015,07,30,16,14,26.60
2015,07,30,16,15,26.50
2015,07,30,16,16,26.40
2015,07,30,16,17,26.20
2015,07,30,16,18,26.00
2015,07,30,16,19,26.00
2015,07,30,16,20,25.90
2015,07,30,16,21,25.90
2015,07,30,16,22,25.90
2015,07,30,16,23,25.90
2015,07,30,16,24,25.80
2015,07,30,16,25,25.80
2015,07,30,16,26,25.80
2015,07,30,16,27,25.90
2015,07,30,16,28,25.90
2015,07,30,16,29,25.90
2015,07,30,16,30,25.90
2015,07,30,16,31,25.90
2015,07,30,16,32,25.90
2015,07,30,16,33,25.90
2015,07,30,16,34,25.90
2015,07,30,16,35,25.90
2015,07,30,16,36,25.90
2015,07,30,16,37,26.00
2015,07,30,16,38,26.00
2015,07,30,16,39,26.10
2015,07,30,16,40,26.20
2015,07,30,16,41,26.30
2015,07,30,16,42,26.40
2015,07,30,16,43,26.40
2015,07,30,16,44,26.50
2015,07,30,16,45,26.60
2015,07,30,16,46,26.80
2015,07,30,16,47,26.90
2015,07,30,16,48,27.00
2015,07,30,16,49,27.10
2015,07,30,16,50,27.10
2015,07,30,16,51,27.20
2015,07,30,16,52,27.20
2015,07,30,16,53,27.30
2015,07,30,16,54,27.30
2015,07,30,16,55,27.30
2015,07,30,16,56,27.30
2015,07,30,16,57,27.30
2015,07,30,16,58,27.30
2015,07,30,16,59,27.30
2015,07,30,17,00,27.30
2015,07,30,17,01,27.30
2015,07,30,17,02,27.40
2015,07,30,17,03,27.50
2015,07,30,17,04,27.40
2015,07,30,17,05,27.30
2015,07,30,17,06,27.30
2015,07,30,17,07,27.30
2015,07,30,17,08,27.20
2015,07,30,17,09,27.20
2015,07,30,17,10,27.30
2015,07,30,17,11,27.30
2015,07,30,17,12,27.30
2015,07,30,17,13,27.30
2015,07,30,17,14,27.30
2015,07,30,17,15,27.30
2015,07,30,17,16,27.30
2015,07,30,17,17,27.30
2015,07,30,17,18,27.40
2015,07,30,17,19,27.40